Terug naar catalogus

STARLINK-4715

ActiefCommunicatieVLEO
NORAD 53801·PAYLOAD·🇺🇸 United States

Gelanceerd Sep 11, 2022 vanaf Cape Canaveral Space Force Station

Loading…

Volgende Passages (komende 24 uur)

TLE

VersSource: CelesTrak SupGP

Epoch: Sep 14, 2026, 22:08 UTC

1 53801C 22111AE  26257.92270833 -.00002848  00000+0 -84155-4 0  2577
2 53801  53.1590 119.4865 0001379  81.8572 181.0182 15.34386025    16

Volg STARLINK-4715 in realtime met AllMySat

Download on the App Store